Location: El Bakhil
(32.7726°N, 5.5387°W)
Time: 19:09:28
(UTC+00:00)

Cosmos 2322 Rocket - Pass Details

Date: 03 March 2021
Orbit: 832 x 852 km, 71.0° (Epoch: 10 April)

Event Time Altitude Azimuth Distance (km) Brightness Sun altitude
Rises 19:02:03 0° 211° (SSW) 3,361 5.8 -9.4°
Reaches altitude 10° 19:04:31 10° 216° (SW) 2,430 5.1 -9.9°
Maximum altitude 19:09:57 53° 293° (WNW) 1,010 3.0 -11.1°
Drops below altitude 10° 19:15:26 10° 10° (N) 2,446 4.5 -12.2°
Sets 19:17:57 0° 15° (NNE) 3,385 5.2 -12.7°
